Bellaire, MI

7:23 PM EDT on July 24, 2017 (GMT -0400)
Antrim County

Weather History for KACB - September, 2014

Change the Weather History Date:

Monday, September 1, 2014

  Actual Average (KCVX) Record (KCVX)
Temperature  
Mean Temperature 68 °F -  
Max Temperature 78 °F 81 °F 89 °F (2008)
Min Temperature 57 °F 62 °F 48 °F (2001)
Cooling Degree Days 2    
Growing Degree Days 18 (Base 50)    
Moisture  
Dew Point 64 °F    
Average Humidity 84    
Maximum Humidity 96    
Minimum Humidity 70    
Precipitation  
Precipitation 0.00 in - - ()
Sea Level Pressure  
Sea Level Pressure 29.74 in    
Wind  
Wind Speed 2 mph (SSW)    
Max Wind Speed 13 mph    
Max Gust Speed 20 mph    
Visibility 8 miles    
Events Rain    
Averages and records for this station are not official NWS values.
T = Trace of Precipitation, MM = Missing Value Source: NWS Daily Summary

Daily Weather History Graph

Daily Weather History Graph

Search for Another Location

Airport or City:

Trip Planner

Search our weather history database for the weather conditions in past years. The results will help you decide how hot, cold, wet, or windy it might be!

Date:

Astronomy

Sep. 01, 2014 Rise Set
Actual Time 7:02 AM EDT 8:17 PM EDT
Civil Twilight 6:32 AM EDT 8:48 PM EDT
Nautical Twilight 5:56 AM EDT 9:24 PM EDT
Astronomical Twilight 5:17 AM EDT 10:02 PM EDT
Moon 2:05 PM EDT (9/1) No Moon Set
Length of Visible Light 14h 15m
Length of Day
13h 15m
Waxing Crescent, 42% of the Moon is Illuminated
Sep 1
Waxing Crescent
Sep 2
First Quarter
Sep 8
Full
Sep 15
Last Quarter
Sep 24
New

Hourly Weather History & Observations

Time (EDT) Temp. Dew Point Humidity Pressure Visibility Wind Dir Wind Speed Gust Speed Precip Events Conditions
12:12 AM 59.5 °F 58.3 °F 96% 29.85 in 5.0 mi Calm Calm - N/A   Clear
12:31 AM 59.5 °F 58.3 °F 96% 29.86 in 3.0 mi Calm Calm - N/A   Clear
12:52 AM 58.8 °F 57.6 °F 96% 29.88 in 10.0 mi Calm Calm - N/A   Clear
1:12 AM 59.0 °F 57.7 °F 96% 29.88 in 2.5 mi Calm Calm - N/A   Clear
1:32 AM 58.6 °F 57.4 °F 96% 29.89 in 3.0 mi Calm Calm - N/A   Clear
1:52 AM 57.9 °F 56.7 °F 96% 29.88 in 4.0 mi Calm Calm - N/A   Clear
2:12 AM 58.8 °F 57.6 °F 96% 29.88 in 5.0 mi Calm Calm - N/A   Mostly Cloudy
2:32 AM 59.2 °F 57.9 °F 96% 29.87 in 7.0 mi Calm Calm - N/A   Mostly Cloudy
2:52 AM 58.8 °F 57.6 °F 96% 29.85 in 1.0 mi Calm Calm - N/A   Mostly Cloudy
3:12 AM 58.8 °F 57.4 °F 95% 29.85 in 2.0 mi Calm Calm - N/A   Scattered Clouds
3:32 AM 58.8 °F 57.4 °F 95% 29.83 in 1.5 mi Calm Calm - N/A   Mist
3:52 AM 59.7 °F 58.5 °F 96% 29.83 in 5.0 mi Calm Calm - N/A   Clear
4:12 AM 60.1 °F 59.0 °F 96% 29.83 in 1.8 mi Calm Calm - N/A   Mostly Cloudy
4:32 AM 60.8 °F 59.7 °F 96% 29.83 in 10.0 mi Calm Calm - N/A   Overcast
4:52 AM 61.2 °F 59.9 °F 96% 29.82 in 5.0 mi Calm Calm - N/A   Mostly Cloudy
5:11 AM 64.0 °F 62.8 °F 96% 29.81 in 10.0 mi South 3.5 mph - N/A   Scattered Clouds
5:32 AM 61.5 °F 60.1 °F 95% 29.80 in 10.0 mi Calm Calm - N/A   Scattered Clouds
5:52 AM 63.5 °F 61.9 °F 94% 29.80 in 10.0 mi Calm Calm - N/A   Scattered Clouds
6:12 AM 66.0 °F 62.6 °F 89% 29.80 in 10.0 mi SW 4.6 mph - N/A   Scattered Clouds
6:32 AM 67.3 °F 63.0 °F 86% 29.79 in 10.0 mi SW 3.5 mph - N/A   Scattered Clouds
6:52 AM 66.7 °F 62.8 °F 87% 29.79 in 10.0 mi Calm Calm - N/A   Scattered Clouds
7:12 AM 67.5 °F 63.7 °F 88% 29.78 in 10.0 mi Calm Calm - N/A   Scattered Clouds
7:32 AM 68.9 °F 64.4 °F 86% 29.79 in 10.0 mi SSW 4.6 mph - N/A   Mostly Cloudy
8:12 AM 69.8 °F 65.7 °F 87% 29.77 in 10.0 mi South 5.8 mph - N/A   Mostly Cloudy
8:52 AM 72.5 °F 66.6 °F 82% 29.75 in 10.0 mi South 8.1 mph - N/A   Mostly Cloudy
9:12 AM 72.7 °F 66.9 °F 82% 29.74 in 10.0 mi South 8.1 mph - N/A   Mostly Cloudy
9:32 AM 73.8 °F 67.3 °F 80% 29.73 in 10.0 mi South 5.8 mph - N/A   Scattered Clouds
9:52 AM 75.6 °F 67.6 °F 76% 29.73 in 10.0 mi SSE 11.5 mph - N/A   Clear
10:12 AM 75.9 °F 68.0 °F 76% 29.73 in 10.0 mi SSE 9.2 mph 19.6 mph N/A   Scattered Clouds
10:32 AM 75.6 °F 67.5 °F 76% 29.72 in 10.0 mi SSE 10.4 mph 18.4 mph N/A   Scattered Clouds
10:53 AM 76.8 °F 67.5 °F 73% 29.71 in 10.0 mi South 12.7 mph 18.4 mph N/A   Scattered Clouds
11:12 AM 77.2 °F 67.6 °F 72% 29.70 in 10.0 mi SSE 12.7 mph 18.4 mph N/A   Mostly Cloudy
11:32 AM 77.2 °F 67.6 °F 72% 29.69 in 10.0 mi South 10.4 mph - N/A   Mostly Cloudy
11:53 AM 78.1 °F 68.0 °F 71% 29.71 in 10.0 mi South 8.1 mph - N/A   Mostly Cloudy
12:12 PM 76.5 °F 68.0 °F 75% 29.71 in 10.0 mi South 5.8 mph - N/A   Overcast
12:32 PM 77.4 °F 68.4 °F 74% 29.67 in 10.0 mi SE 8.1 mph - N/A   Overcast
12:52 PM 77.7 °F 68.2 °F 72% 29.65 in 10.0 mi SSE 4.6 mph - N/A   Overcast
1:12 PM 76.3 °F 68.9 °F 78% 29.64 in 7.0 mi SSE 3.5 mph - N/A Rain Rain
1:32 PM 72.7 °F 69.4 °F 90% 29.61 in 1.5 mi WNW 3.5 mph - N/A Rain Heavy Rain
2:12 PM 69.1 °F 66.4 °F 91% 29.69 in 4.0 mi West 4.6 mph - N/A Rain Heavy Rain
2:33 PM 69.8 °F 67.1 °F 91% 29.68 in 10.0 mi West 4.6 mph - N/A   Mostly Cloudy
2:52 PM 70.7 °F 66.6 °F 87% 29.68 in 10.0 mi WSW 3.5 mph - N/A   Mostly Cloudy
3:12 PM 70.9 °F 66.2 °F 85% 29.68 in 10.0 mi SSW 3.5 mph - N/A   Overcast
3:33 PM 71.8 °F 66.7 °F 84% 29.66 in 10.0 mi SSW 5.8 mph - N/A   Mostly Cloudy
3:52 PM 72.7 °F 66.4 °F 81% 29.64 in 10.0 mi South 4.6 mph - N/A   Scattered Clouds
4:12 PM 73.9 °F 65.1 °F 74% 29.64 in 10.0 mi SSW 5.8 mph - N/A   Mostly Cloudy
4:29 PM 75.2 °F 66.0 °F 73% 29.65 in 10.0 mi SW 5.8 mph - N/A   Scattered Clouds
4:52 PM 75.2 °F 64.8 °F 70% 29.65 in 10.0 mi WSW 4.6 mph - N/A   Scattered Clouds
5:12 PM 74.8 °F 64.6 °F 70% 29.66 in 10.0 mi SW 5.8 mph - N/A   Mostly Cloudy
5:33 PM 73.0 °F 64.4 °F 74% 29.67 in 10.0 mi WNW 6.9 mph - N/A   Overcast
5:52 PM 72.5 °F 63.5 °F 73% 29.67 in 10.0 mi WNW 3.5 mph - N/A   Overcast
6:12 PM 72.5 °F 63.5 °F 73% 29.67 in 10.0 mi West 3.5 mph - N/A   Overcast
6:32 PM 72.5 °F 63.5 °F 73% 29.67 in 10.0 mi Calm Calm - N/A   Overcast
6:52 PM 72.0 °F 63.5 °F 75% 29.68 in 10.0 mi Calm Calm - N/A   Overcast
7:12 PM 71.8 °F 63.7 °F 76% 29.68 in 10.0 mi Calm Calm - N/A   Overcast
7:32 PM 71.8 °F 63.5 °F 75% 29.68 in 10.0 mi Calm Calm - N/A   Overcast
7:52 PM 71.8 °F 63.9 °F 76% 29.69 in 10.0 mi Calm Calm - N/A   Overcast
8:13 PM 71.1 °F 64.4 °F 79% 29.69 in 10.0 mi Calm Calm - N/A   Overcast
8:32 PM 70.7 °F 64.4 °F 80% 29.70 in 10.0 mi Calm Calm - N/A   Overcast
8:52 PM 71.1 °F 64.4 °F 79% 29.70 in 10.0 mi WSW 5.8 mph - N/A   Overcast
9:13 PM 70.9 °F 64.4 °F 80% 29.71 in 10.0 mi SW 4.6 mph - N/A   Mostly Cloudy
9:32 PM 70.7 °F 64.4 °F 80% 29.72 in 10.0 mi SW 4.6 mph - N/A   Mostly Cloudy
9:52 PM 70.5 °F 64.6 °F 81% 29.73 in 10.0 mi SW 5.8 mph - N/A   Overcast
10:13 PM 70.7 °F 64.6 °F 81% 29.74 in 10.0 mi SW 4.6 mph - N/A   Overcast
10:32 PM 70.2 °F 64.4 °F 82% 29.74 in 10.0 mi SW 5.8 mph - N/A   Scattered Clouds
10:52 PM 69.8 °F 64.4 °F 83% 29.74 in 10.0 mi Calm Calm - N/A   Scattered Clouds
11:13 PM 69.4 °F 64.4 °F 84% 29.75 in 10.0 mi Calm Calm - N/A   Mostly Cloudy
11:32 PM 68.9 °F 64.2 °F 85% 29.75 in 10.0 mi Calm Calm - N/A   Overcast
11:52 PM 67.3 °F 64.2 °F 90% 29.75 in 10.0 mi Calm Calm - N/A   Scattered Clouds